P/2024 K1 ( PanSTARRS )

Japanese version
Home page
Updated on March 4, 2025

---------------------------------------------------------------------

* Profile

Discovery Date May 30, 2024
Magnitude 20.7 mag
Discoverer Pan-STARRS 1 telescope (Haleakala)

* Orbital Elements

Epoch 2024 Oct. 17.0 TT = JDT 2460600.5
T 2024 Apr. 24.73424 TT                                 Pike
q   3.4825212            (2000.0)            P               Q
n   0.05512880     Peri.  349.41913     -0.48407108     +0.87450912
a   6.8372853      Node   251.62348     -0.80048479     -0.45648607
e   0.4906573      Incl.    1.82057     -0.35341095     -0.16387273
P  17.9
From 36 observations 2024 May 19-June 10, mean residual 0".2.

* Magnitudes Graph

        m1 = 13.0 + 5 log d + 10.0 log r

---------------------------------------------------------------------

The orbital elements are published on M.P.E.C. 2025-A174.
The magnitudes graphs are made with Comet for Windows.

---------------------------------------------------------------------

Copyright(C) Seiichi Yoshida (comet@aerith.net). All rights reserved.